Погода в Глядени

Россия / Красноярский край     55°46′35″N   90°08′28″E
темп.,
°C
ветер,
м/с
пор.,
м/с
влажн.,
%
обл.,
%
осадки,
мм/ч
давл.,
гПа
погр.,
м
12 мая, ср
ср1201:00+10ссв2249100 0.0 101612
04:00+9св225899 0.0 101513
07:00+9св236296 0.0 1016135
10:00+15св454592 0.0 1015647
13:00+18св56295 0.0 10152477
16:00+18ссв552942 0.0 10142700
19:00+17с543479 0.0 10142156
22:00+14вюв364780 0.0 1015187
13 мая, чт
чт1301:00+10юв25541 0.0 1016104
04:00+8юв35580 0.0 101688
07:00+10юв35495 0.0 1016192
10:00+14юв44360 0.0 1015884
13:00+17вюв32315 0.0 10141846
16:00+18в222816 0.0 10122360
19:00+17вюв333069 0.0 10111656
22:00+12ююв37389 0.0 1012114
14 мая, пт
пт1401:00+10ю22475 0.0 101121
04:00+9з3482100 0.1 101167
07:00+10з4782100 0.3 1011459
10:00+9сз4890100 4.7 1012876
13:00+12сз101056100 5.8 10121761
16:00+8сз81061100 0.3 10151712
19:00+8сз6105082 0.4 10171870
22:00+5сз226691 0.0 102037
15 мая, сб
сб1501:00+5юз356849 0.0 1021134
04:00+3зюз3966100 0.0 1021201
07:00+7зюз51051100 0.0 10211039
10:00+8зюз71461100 0.1 1019765
13:00+12зюз9155796 0.1 10181003
16:00+15з10134981 0.1 10171240
19:00+14зюз61355100 0.1 1016970
22:00+12зюз8177230 0.3 1016691
16 мая, вс
вс1601:00+13зюз7157160 0.4 1015657
04:00+12зюз3777100 0.3 1014237
07:00+13зюз4117499 0.4 1014655
10:00+15з596698 0.1 1013846
13:00+22з6946100 0.1 10101689
16:00+21зюз101648100 0.1 10082045
19:00+18з6136845 4.4 1006504
22:00+14зюз101885100 6.9 1006881